Simultaneous Nadir Overpasses (SNOs) Predictions

Prediction of SNOs between METOP-B and TERRA Satellite Orbit:

Table of predicted SNOs for the next 14.0 days since TLE Epoch: 2/11/2023
Index Date (METOP-B) Time (METOP-B) Lat,Lon (METOP-B) SZA (METOP-B ) Date (TERRA) Time (TERRA) Lat,Lon (TERRA) SZA (TERRA ) Distance(km) Time Diff (sec)
1 02/13/2023 04:26:29 -80.93, -31.61 84.37 02/13/2023 04:27:11 -80.93, -31.51 84.34 1.76 42
2 02/13/2023 05:17:07 80.97, 136.61 95.74 02/13/2023 05:16:32 80.97, 136.61 95.72 0.20 35
3 02/15/2023 20:38:08 -80.96, 86.00 85.21 02/15/2023 20:38:35 -80.96, 85.89 85.21 1.92 27
4 02/15/2023 21:28:47 80.98,-106.17 94.85 02/15/2023 21:27:56 80.99,-106.04 94.85 2.36 51
5 02/18/2023 12:49:49 -80.94,-157.24 86.17 02/18/2023 12:49:59 -80.95,-157.09 86.15 2.73 10
6 02/18/2023 13:40:27 80.98, 10.94 93.92 02/18/2023 13:39:20 80.98, 10.93 93.90 0.53 67
7 02/21/2023 04:10:47 80.93, 152.32 92.87 02/21/2023 04:11:58 80.93, 152.14 92.88 3.20 71
8 02/21/2023 05:01:28 -80.94, -40.22 87.13 02/21/2023 05:01:21 -80.94, -40.09 87.12 2.41 7
9 02/23/2023 20:22:27 80.92, -90.80 91.88 02/23/2023 20:23:20 80.91, -90.93 91.88 2.43 53



Historial Predications of SNOs between METOP-B and TERRA
